When you browse on this site, cookies collect data to enhance your experience and personalize the content and advertising you see.
Visit our Privacy Policy to learn more. By continuing to use the site, you agree to this use of cookies and data.
  • Em Portugal
  • Lista de países
  • Para 7 dias
  • Temperatura da água
  • Mapa do tempo
  • Widgets de tempo
  • user-avatar
    Iniciar Sessão

    Previsão horária em Arkadia

    Hoje, 10 Dezembro, Terça-feira

    Tempo Temperatura Precipitação Vento Pressão Humidade
    00:00 +6°C° 0.1 mm 1 m/s 659 mmHg 88%
    01:00 +6°C° 0 mm 1 m/s 659 mmHg 86%
    02:00 +6°C° 0.2 mm 1 m/s 659 mmHg 86%
    03:00 +6°C° 0.2 mm 1 m/s 659 mmHg 87%
    04:00 +6°C° 0.2 mm 1 m/s 658 mmHg 88%
    05:00 +6°C° 0 mm 1 m/s 658 mmHg 88%
    06:00 +6°C° 0 mm 1 m/s 658 mmHg 88%
    07:00 +6°C° 0 mm 1 m/s 658 mmHg 88%
    08:00 +7°C° 0 mm 1 m/s 658 mmHg 85%
    09:00 +7°C° 0 mm 2 m/s 658 mmHg 81%
    10:00 +8°C° 0 mm 2 m/s 658 mmHg 78%
    11:00 +8°C° 0.2 mm 2 m/s 658 mmHg 80%
    12:00 +8°C° 0.2 mm 2 m/s 658 mmHg 82%
    13:00 +8°C° 0 mm 2 m/s 658 mmHg 80%
    14:00 +9°C° 0.9 mm 1 m/s 657 mmHg 85%
    15:00 +8°C° 0.9 mm 1 m/s 657 mmHg 90%
    16:00 +7°C° 0.9 mm 1 m/s 656 mmHg 95%
    17:00 +7°C° 1.7 mm 1 m/s 656 mmHg 95%
    18:00 +7°C° 1.7 mm 1 m/s 656 mmHg 95%
    19:00 +7°C° 1.7 mm 1 m/s 657 mmHg 95%
    20:00 +6°C° 1.4 mm 0 m/s 657 mmHg 94%
    21:00 +6°C° 1.4 mm 0 m/s 657 mmHg 93%
    22:00 +6°C° 1.4 mm 0 m/s 657 mmHg 92%
    23:00 +5°C° 0.2 mm 0 m/s 656 mmHg 93%

    Amanhã, 11 Dezembro, Quarta-feira

    Tempo Temperatura Precipitação Vento Pressão Humidade
    00:00 +5°C° 0.2 mm 0 m/s 656 mmHg 93%
    01:00 +4°C° 0.2 mm 0 m/s 656 mmHg 94%
    02:00 +5°C° 0.3 mm 1 m/s 656 mmHg 94%
    03:00 +5°C° 0.3 mm 1 m/s 656 mmHg 94%
    04:00 +5°C° 0.3 mm 1 m/s 656 mmHg 93%
    05:00 +5°C° 0.1 mm 1 m/s 656 mmHg 93%
    06:00 +5°C° 0.1 mm 1 m/s 656 mmHg 93%
    07:00 +4°C° 0.1 mm 1 m/s 656 mmHg 92%
    08:00 +6°C° 0.1 mm 1 m/s 657 mmHg 85%
    09:00 +7°C° 0.1 mm 1 m/s 657 mmHg 78%
    10:00 +9°C° 0.1 mm 1 m/s 658 mmHg 70%
    11:00 +8°C° 0.4 mm 1 m/s 658 mmHg 71%
    12:00 +7°C° 0.4 mm 2 m/s 657 mmHg 72%
    13:00 +7°C° 0.4 mm 2 m/s 657 mmHg 73%
    14:00 +6°C° 1 mm 2 m/s 657 mmHg 79%
    15:00 +5°C° 1 mm 2 m/s 656 mmHg 84%
    16:00 +4°C° 1 mm 2 m/s 656 mmHg 89%
    17:00 +4°C° 0.3 mm 2 m/s 656 mmHg 89%
    18:00 +5°C° 0.3 mm 1 m/s 656 mmHg 89%
    19:00 +5°C° 0.3 mm 1 m/s 656 mmHg 89%
    20:00 +5°C° 0.2 mm 1 m/s 656 mmHg 90%
    21:00 +5°C° 0.2 mm 1 m/s 656 mmHg 90%
    22:00 +4°C° 0.2 mm 2 m/s 656 mmHg 90%
    23:00 +3°C° 0.1 mm 2 m/s 656 mmHg 91%

    Depois de amanhã, 12 Dezembro, Quinta-feira

    Tempo Temperatura Precipitação Vento Pressão Humidade
    00:00 +4°C° 0.1 mm 1 m/s 655 mmHg 92%
    01:00 +4°C° 0.1 mm 1 m/s 655 mmHg 92%
    02:00 +4°C° 0 mm 1 m/s 655 mmHg 93%
    03:00 +3°C° 0 mm 1 m/s 655 mmHg 93%
    04:00 +3°C° 0 mm 1 m/s 655 mmHg 93%
    05:00 +3°C° 0 mm 1 m/s 655 mmHg 93%
    06:00 +3°C° 0 mm 1 m/s 655 mmHg 92%
    07:00 +3°C° 0 mm 1 m/s 655 mmHg 92%
    08:00 +5°C° 0 mm 1 m/s 656 mmHg 86%
    09:00 +7°C° 0 mm 1 m/s 657 mmHg 79%
    10:00 +7°C° 0 mm 0 m/s 658 mmHg 73%
    11:00 +9°C° 0 mm 1 m/s 658 mmHg 69%
    12:00 +9°C° 0 mm 1 m/s 658 mmHg 65%
    13:00 +9°C° 0 mm 2 m/s 658 mmHg 61%
    14:00 +9°C° 0 mm 1 m/s 657 mmHg 67%
    15:00 +8°C° 0 mm 1 m/s 657 mmHg 73%
    16:00 +7°C° 0 mm 1 m/s 657 mmHg 80%
    17:00 +6°C° 0 mm 1 m/s 657 mmHg 83%
    18:00 +5°C° 0 mm 1 m/s 657 mmHg 86%
    19:00 +5°C° 0 mm 1 m/s 657 mmHg 89%
    20:00 +4°C° 0 mm 1 m/s 657 mmHg 89%
    21:00 +4°C° 0 mm 1 m/s 657 mmHg 89%
    22:00 +4°C° 0 mm 1 m/s 657 mmHg 89%
    23:00 +4°C° 0 mm 1 m/s 657 mmHg 89%

    13 Dezembro, Sexta-feira

    Tempo Temperatura Precipitação Vento Pressão Humidade
    00:00 +4°C° 0 mm 1 m/s 657 mmHg 90%
    01:00 +4°C° 0 mm 1 m/s 657 mmHg 90%
    02:00 +4°C° 0.1 mm 1 m/s 657 mmHg 90%
    03:00 +4°C° 0.1 mm 1 m/s 656 mmHg 90%
    04:00 +5°C° 0.1 mm 1 m/s 656 mmHg 90%
    05:00 +4°C° 0 mm 1 m/s 656 mmHg 91%
    06:00 +4°C° 0 mm 1 m/s 656 mmHg 92%
    07:00 +4°C° 0 mm 1 m/s 656 mmHg 93%
    08:00 +4°C° 0.2 mm 2 m/s 657 mmHg 88%
    09:00 +5°C° 0.2 mm 2 m/s 657 mmHg 83%
    10:00 +5°C° 0.2 mm 3 m/s 657 mmHg 79%
    11:00 +5°C° 0.3 mm 3 m/s 657 mmHg 79%
    12:00 +5°C° 0.3 mm 3 m/s 657 mmHg 80%
    13:00 +5°C° 0.3 mm 3 m/s 657 mmHg 80%
    14:00 +5°C° 0.2 mm 3 m/s 656 mmHg 82%
    15:00 +5°C° 0.2 mm 2 m/s 656 mmHg 85%
    16:00 +5°C° 0.2 mm 2 m/s 656 mmHg 87%
    17:00 +4°C° 0.1 mm 2 m/s 656 mmHg 89%
    18:00 +5°C° 0.1 mm 1 m/s 656 mmHg 91%
    19:00 +4°C° 0.1 mm 1 m/s 655 mmHg 92%
    20:00 +4°C° 0 mm 1 m/s 655 mmHg 92%
    21:00 +4°C° 0 mm 1 m/s 655 mmHg 92%
    22:00 +3°C° 0 mm 2 m/s 655 mmHg 92%
    23:00 +3°C° 0.1 mm 2 m/s 655 mmHg 93%

    14 Dezembro, Sábado

    Tempo Temperatura Precipitação Vento Pressão Humidade
    00:00 +3°C° 0.1 mm 2 m/s 654 mmHg 93%
    01:00 +4°C° 0.1 mm 2 m/s 654 mmHg 93%
    02:00 +4°C° 1 mm 2 m/s 653 mmHg 94%
    03:00 +3°C° 1 mm 3 m/s 653 mmHg 94%
    04:00 +4°C° 1 mm 3 m/s 652 mmHg 95%
    05:00 +4°C° 3.7 mm 4 m/s 651 mmHg 95%
    06:00 +3°C° 3.7 mm 5 m/s 651 mmHg 96%
    07:00 +5°C° 3.7 mm 5 m/s 651 mmHg 97%
    08:00 +4°C° 2.6 mm 4 m/s 651 mmHg 94%
    09:00 +4°C° 2.6 mm 3 m/s 651 mmHg 90%
    10:00 +4°C° 2.6 mm 2 m/s 650 mmHg 87%
    11:00 +5°C° 0.3 mm 2 m/s 651 mmHg 85%
    12:00 +5°C° 0.3 mm 2 m/s 651 mmHg 83%
    13:00 +5°C° 0.3 mm 2 m/s 651 mmHg 81%
    14:00 +5°C° 0.2 mm 2 m/s 651 mmHg 84%
    15:00 +6°C° 0.2 mm 1 m/s 651 mmHg 86%
    16:00 +5°C° 0.2 mm 1 m/s 652 mmHg 89%
    17:00 +5°C° 0.2 mm 1 m/s 652 mmHg 90%
    18:00 +5°C° 0.2 mm 1 m/s 653 mmHg 91%
    19:00 +5°C° 0.2 mm 1 m/s 654 mmHg 92%
    20:00 +5°C° 0.1 mm 1 m/s 655 mmHg 92%
    21:00 +4°C° 0.1 mm 1 m/s 656 mmHg 91%
    22:00 +4°C° 0.1 mm 1 m/s 657 mmHg 90%
    23:00 +5°C° 0 mm 1 m/s 658 mmHg 90%

    15 Dezembro, Domingo

    Tempo Temperatura Precipitação Vento Pressão Humidade
    00:00 +5°C° 0 mm 1 m/s 659 mmHg 90%
    01:00 +5°C° 0 mm 1 m/s 660 mmHg 89%
    02:00 +5°C° 0 mm 1 m/s 660 mmHg 90%
    03:00 +5°C° 0 mm 1 m/s 661 mmHg 91%
    04:00 +5°C° 0 mm 1 m/s 661 mmHg 92%
    05:00 +5°C° 0 mm 1 m/s 662 mmHg 92%
    06:00 +5°C° 0 mm 1 m/s 663 mmHg 92%
    07:00 +5°C° 0 mm 1 m/s 664 mmHg 92%
    08:00 +7°C° 0 mm 1 m/s 665 mmHg 87%
    09:00 +8°C° 0 mm 1 m/s 666 mmHg 81%
    10:00 +10°C° 0 mm 1 m/s 667 mmHg 76%
    11:00 +11°C° 0 mm 1 m/s 667 mmHg 73%
    12:00 +12°C° 0 mm 1 m/s 668 mmHg 69%
    13:00 +12°C° 0 mm 1 m/s 668 mmHg 66%
    14:00 +11°C° 0 mm 1 m/s 668 mmHg 73%
    15:00 +10°C° 0 mm 1 m/s 668 mmHg 79%
    16:00 +8°C° 0 mm 0 m/s 668 mmHg 85%
    17:00 +7°C° 0 mm 0 m/s 668 mmHg 87%
    18:00 +6°C° 0 mm 0 m/s 668 mmHg 89%
    19:00 +6°C° 0 mm 0 m/s 668 mmHg 90%
    20:00 +5°C° 0 mm 0 m/s 668 mmHg 90%
    21:00 +5°C° 0 mm 0 m/s 669 mmHg 90%
    22:00 +5°C° 0 mm 0 m/s 669 mmHg 90%
    23:00 +5°C° 0 mm 0 m/s 669 mmHg 90%
    Mostrar mais